Find Kosmos-1698

NORAD ID: 16183 Int'l Des: 1985-098 Owner: PVO Country: SU operational
MEOELLIPTICALHEO_ELLIPTICALSEMI_SYNC

Live Position

Loading 3D Globe...

About Kosmos-1698

Description loading...

Upcoming Passes

Passes for default location (London). Set your location on the main map for personalized predictions.

Altitude History

Loading altitude history...

Two-Line Element Set

1 16183U 85098A 26105.96068877 .00000561 00000-0 00000-0 0 9996
2 16183 71.3539 107.1080 5180254 350.8580 201.0976 2.00744835296498
Epoch: Apr 15, 2026 • Age: 25 hours

Current Status

Altitude 29599.1 km
Velocity 2.67 km/s
Sub-Earth Point -17.21°S, 79.92°E
Launch Date Oct 22, 1985
Age 40.4 years
Type other

Technical Details

Classification Payload
Mass 1250.00 kg
Dry Mass 1150.00 kg
Total Mass 1250.00 kg
Length 4.00 m
Diameter 2.00 m
Span 5.00 m
Shape Cyl + 2 Pan
Manufacturer NPOL/KOMET
Bus Type Oko
Phase Status In Orbit
Owner/State PVO/SU

Most Searched